Theta_e
326 321 318 321 316 316 311 303 295 291 293 289 286 289 290 294 292 294 291 291 294 295 294 297 295 297 298 295 298 296 295 297 296 291 289 294 308 311 319 315 318 324 326 326 328 331 337 342 346 347 347 347 347 347 347 347 347 347 348 347 347 347 348 347 347 347 347 347 347 346 347 347 346 345 345 345 344 344 344 344 344 344 345 345 346 345 346 346 344 343 341 340 338 337 336 336 335
321 317 318 317 316 311 306 296 288 286 284 281 287 286 289 291 292 292 292 291 293 297 293 298 297 299 297 298 295 298 298 298 297 299 300 303 307 314 315 316 319 325 325 325 326 328 330 336 344 346 346 346 347 347 347 347 347 347 347 347 347 347 347 347 347 347 347 347 346 346 345 345 345 344 344 343 342 342 342 342 342 343 344 343 344 344 344 343 342 341 339 338 336 334 334 334 333
317 318 318 316 313 308 303 297 294 280 285 282 283 288 291 292 291 291 293 292 291 292 294 297 298 298 300 299 299 299 295 300 299 300 301 304 312 316 316 316 321 323 323 321 323 324 327 332 340 344 345 345 345 345 345 345 345 346 346 346 346 346 346 346 346 346 346 346 345 345 344 344 343 341 341 341 341 340 340 341 341 340 340 341 341 341 341 341 340 339 337 335 334 333 333 332 331
315 317 314 310 309 299 298 292 285 284 286 281 282 287 288 293 291 293 292 292 290 292 295 299 299 299 299 296 298 298 296 298 301 302 300 306 313 316 316 318 320 321 319 319 319 321 324 332 339 343 344 343 345 343 343 343 343 344 344 344 345 344 344 344 344 344 344 343 343 343 341 341 340 340 339 339 338 338 338 337 337 337 338 338 339 339 339 338 337 336 335 333 332 331 330 330 329
315 316 313 307 303 300 294 290 287 286 286 283 282 286 290 290 293 291 290 292 291 294 294 296 297 297 299 298 297 298 297 298 301 302 301 304 305 314 316 319 320 321 321 319 319 319 323 334 338 341 342 342 344 341 342 342 342 342 342 344 343 343 343 343 343 342 342 342 341 340 340 338 338 337 336 335 336 336 336 336 336 336 336 336 336 336 336 335 334 334 332 331 331 329 328 327 327
311 311 310 311 305 303 296 291 289 287 290 287 287 290 290 291 292 292 292 291 293 293 294 293 297 297 297 296 297 297 297 303 302 302 302 305 307 314 317 320 320 320 319 318 317 319 320 334 336 340 340 340 340 340 340 340 341 341 341 341 341 341 342 341 341 340 339 339 339 339 338 336 336 334 333 332 333 333 333 334 334 334 334 333 333 333 333 332 331 331 331 330 329 327 326 326 326
312 304 302 303 300 298 290 286 286 286 294 291 291 293 297 295 293 294 293 296 295 295 293 298 293 295 294 294 298 300 300 304 303 305 305 306 309 316 318 319 319 319 317 317 317 318 319 334 337 337 339 340 340 339 338 337 338 337 337 338 340 340 338 337 338 339 336 336 335 336 335 335 334 332 331 330 330 330 331 332 332 331 331 331 331 331 331 330 330 329 329 328 327 326 325 325 324
311 308 302 295 291 293 291 286 288 287 291 295 293 293 297 295 293 295 294 294 295 297 294 292 293 295 293 297 295 296 300 302 304 303 302 305 312 315 318 318 318 317 317 316 316 316 325 333 336 336 337 337 338 337 336 335 336 336 336 337 336 335 335 335 334 335 334 334 334 333 332 332 332 330 330 329 329 329 329 329 329 329 329 329 329 329 328 329 328 328 327 326 325 324 324 323 322
305 304 299 295 294 287 284 288 288 289 291 291 293 294 302 299 295 295 293 292 294 293 293 294 293 293 289 292 295 295 296 299 301 303 304 307 312 315 318 317 317 316 316 316 316 317 319 331 335 336 336 335 336 335 335 335 335 335 335 335 335 334 334 334 334 334 333 333 333 332 331 331 330 329 329 328 328 328 328 328 327 328 327 327 327 327 328 329 328 327 327 326 324 323 322 321 321
303 301 295 291 287 290 281 285 287 289 290 291 292 296 295 294 294 293 294 293 294 293 293 292 292 295 292 292 292 295 298 299 301 303 303 307 312 315 316 317 316 315 314 315 315 317 319 327 332 335 335 335 335 335 335 334 334 334 334 334 334 333 333 333 333 333 332 332 331 331 330 329 328 327 328 328 327 327 327 327 327 327 327 327 326 326 327 327 326 326 326 324 323 322 321 320 319
297 296 295 293 288 285 285 284 284 289 287 289 293 296 296 295 296 293 293 293 292 295 293 293 296 294 293 293 295 296 298 299 302 303 304 308 310 315 316 313 314 315 315 313 313 315 318 321 327 332 333 334 334 333 333 333 333 333 333 332 332 332 332 332 331 331 331 331 330 330 329 328 328 327 328 327 326 326 326 326 327 326 326 326 326 326 326 325 325 325 324 323 322 321 320 319 317
296 294 292 284 285 285 283 283 286 289 291 291 293 292 291 294 293 294 292 294 293 292 293 295 297 294 293 292 292 295 298 298 301 302 305 307 310 312 314 311 312 313 314 313 312 314 316 316 320 325 330 332 332 332 333 333 332 332 332 331 331 331 331 330 330 330 330 329 329 329 328 328 327 327 327 326 325 325 325 326 326 326 325 325 325 325 324 323 324 323 322 321 320 319 319 318 316
296 291 287 287 284 286 283 286 288 290 289 289 292 294 293 294 294 295 293 294 292 294 294 296 295 297 294 292 292 293 299 300 300 302 305 307 308 307 309 310 310 311 312 312 313 313 312 315 316 319 324 328 328 329 330 332 333 331 331 331 330 330 330 330 330 329 329 329 329 327 327 327 326 326 326 325 325 325 325 325 324 325 325 324 323 322 321 321 321 320 320 319 319 318 317 316 315
295 292 291 288 284 283 287 287 284 288 287 289 289 290 294 295 294 294 291 294 292 294 295 295 297 295 293 293 294 291 295 297 299 302 304 304 305 307 307 307 308 309 309 311 314 313 313 313 314 315 319 323 321 324 326 329 330 331 330 330 330 329 329 329 329 328 328 328 326 326 325 325 324 324 324 324 324 324 324 323 323 324 324 323 321 321 320 319 318 318 318 318 317 317 316 315 314
300 292 287 287 286 283 283 289 288 284 287 289 292 292 294 296 293 290 295 294 295 294 297 295 297 296 291 294 293 293 298 299 300 301 301 303 305 305 305 306 306 307 307 309 312 312 313 311 314 314 314 315 317 316 318 323 327 328 329 330 329 328 328 327 327 326 326 325 325 325 324 323 322 322 322 322 322 321 321 322 322 322 322 321 321 319 318 318 316 315 315 315 315 315 314 314 312
297 291 290 292 285 285 285 286 285 287 289 290 291 290 292 292 291 295 294 296 295 296 295 297 298 296 295 295 296 298 295 298 299 300 301 302 302 302 303 304 305 305 306 308 310 311 312 311 311 312 313 312 312 313 315 314 323 324 327 328 328 327 327 327 326 324 322 320 320 320 319 316 316 314 318 316 319 320 319 316 320 321 320 320 319 318 317 316 315 314 312 311 310 310 310 310 309
294 293 290 282 286 284 285 286 286 286 287 288 289 292 295 292 293 292 293 295 295 293 296 294 298 298 294 293 294 294 296 301 301 299 300 300 302 301 302 302 303 303 306 307 309 310 310 311 310 311 310 311 311 311 312 312 316 322 323 323 324 324 325 324 324 320 315 314 312 312 310 305 303 304 305 306 312 309 314 316 319 319 319 317 317 317 316 315 313 312 311 309 308 306 303 303 304
300 292 285 285 284 284 286 288 289 291 291 292 292 291 293 291 290 295 295 295 293 292 292 293 294 294 294 293 294 296 297 298 298 300 300 299 300 301 302 304 304 307 306 307 307 309 309 310 310 310 309 309 309 310 310 310 311 319 312 313 313 318 320 319 314 309 310 305 310 304 299 302 299 298 301 308 305 308 311 314 316 317 317 316 315 315 315 313 312 311 310 308 306 304 299 289 291
294 286 285 287 284 290 291 289 290 290 292 290 291 291 292 294 294 294 294 291 290 293 292 292 295 297 294 294 295 295 297 297 298 301 299 299 299 301 304 304 304 304 306 307 308 308 309 309 309 310 309 308 308 308 309 309 309 309 307 310 311 315 312 307 305 305 301 300 297 296 298 297 296 297 299 302 303 309 310 313 315 315 315 314 313 313 312 312 310 309 308 306 304 299 290 288 288
294 291 287 286 288 289 290 290 293 292 293 294 294 291 289 291 293 293 294 293 290 291 294 292 292 297 297 294 293 295 296 297 298 300 299 300 300 302 303 303 304 306 308 308 309 308 307 309 309 309 308 306 307 307 307 307 307 307 307 308 309 307 304 302 300 299 298 296 294 294 294 295 295 297 306 307 307 303 307 310 311 311 310 309 307 306 310 309 308 306 304 301 296 291 288 288 288
294 293 288 290 289 290 294 292 294 293 292 292 291 289 289 290 290 293 290 292 294 294 295 296 297 297 298 293 294 294 295 295 296 298 299 300 300 302 303 304 305 307 307 307 305 307 307 308 308 307 307 305 306 306 306 306 305 304 305 304 304 301 300 298 297 296 295 293 292 293 293 294 295 298 297 297 295 294 293 293 294 293 292 293 296 289 290 291 289 287 289 290 288 289 288 288 287
294 295 295 293 289 291 295 293 291 291 290 291 288 290 295 292 290 290 292 292 295 296 295 296 298 299 297 295 294 294 295 295 296 297 298 299 299 299 301 302 302 300 301 304 306 307 307 307 308 307 305 304 305 305 306 306 305 304 303 302 301 300 299 296 294 293 292 292 292 292 295 295 295 294 292 291 291 289 288 288 289 288 289 290 291 287 287 287 287 287 287 287 287 287 287 287 288
293 293 295 296 292 294 293 292 290 290 292 290 291 293 291 292 294 289 291 294 299 300 295 295 297 298 297 294 294 294 294 294 295 296 297 297 298 299 300 301 301 301 301 305 306 306 306 306 306 306 305 304 303 304 304 304 303 304 302 300 301 297 296 295 293 292 292 291 291 294 294 293 291 290 290 289 288 288 287 287 287 287 287 287 289 288 287 287 287 286 286 286 286 286 286 286 286
295 293 290 294 294 296 297 297 295 291 291 295 293 290 292 292 294 290 292 296 299 301 296 295 294 293 294 293 294 296 296 295 296 297 298 299 299 299 300 300 301 301 299 302 303 304 305 305 306 305 305 303 303 302 302 302 302 301 300 301 300 299 296 295 292 291 292 291 292 293 294 291 291 289 289 287 287 287 287 287 287 286 287 287 288 288 287 286 286 286 286 285 286 286 286 285 285
294 294 292 294 293 294 295 293 291 291 292 294 291 292 296 295 294 290 292 295 298 299 296 295 295 293 291 294 294 295 295 296 296 297 297 298 299 299 299 298 297 298 299 300 300 301 303 305 305 304 304 303 303 301 302 301 300 299 299 299 298 300 295 295 293 292 291 291 292 293 293 290 288 289 288 287 287 287 287 287 286 286 287 287 287 286 287 287 286 285 286 285 285 285 285 285 285
293 297 293 291 292 292 293 291 290 290 293 291 292 293 295 295 291 292 296 298 300 299 296 295 295 292 292 293 295 295 295 296 296 296 297 298 297 296 297 297 297 296 298 299 299 300 301 303 303 304 304 303 302 300 301 300 299 298 298 298 297 298 294 293 292 291 291 291 291 292 291 289 289 288 288 286 286 286 286 286 286 286 286 286 286 286 286 286 286 285 285 285 285 284 285 287 284
290 291 291 293 294 292 291 291 290 289 288 287 292 293 295 292 292 293 294 296 294 293 292 290 290 292 293 293 294 294 295 296 296 298 296 295 295 296 297 297 296 297 297 297 298 298 299 300 302 303 303 303 301 300 300 300 299 298 298 297 296 296 294 293 292 291 291 291 291 291 291 291 289 288 287 287 286 286 286 286 286 286 285 286 286 286 286 286 285 285 285 284 284 284 284 285 284
290 291 289 290 289 289 289 288 290 290 293 289 293 293 293 290 289 294 298 296 293 293 294 291 289 292 292 292 293 294 294 296 296 295 296 295 296 296 296 297 297 297 296 297 298 298 297 298 300 301 302 302 300 300 300 299 298 298 297 296 295 295 293 292 292 291 292 291 291 290 290 290 290 287 287 287 286 286 285 285 285 285 285 285 286 285 286 286 285 285 285 284 284 284 284 284 284
291 290 290 289 289 291 294 291 293 289 291 288 290 289 288 289 288 296 297 297 294 292 293 294 293 292 292 292 292 292 294 295 294 295 297 298 299 298 297 298 298 297 298 298 297 296 296 297 298 299 301 301 300 299 299 298 297 297 296 295 295 294 293 292 291 291 291 291 291 290 290 289 290 288 287 288 289 285 285 284 284 286 285 286 286 286 286 285 285 285 285 284 283 283 283 283 284
291 288 287 290 289 289 292 289 286 288 290 287 290 285 282 290 294 296 297 294 291 290 292 294 295 294 293 291 292 293 293 293 294 296 298 298 299 299 298 299 299 298 298 297 296 296 297 297 298 298 299 299 299 299 298 297 296 296 295 294 294 293 293 292 292 291 291 290 291 290 289 289 289 288 287 287 287 285 285 284 284 284 284 285 286 286 285 284 284 284 284 284 287 283 282 282 282
290 287 288 285 284 286 289 290 287 288 288 289 290 286 284 290 294 297 295 292 290 292 292 292 294 293 292 292 291 292 294 294 295 296 297 298 299 299 299 299 298 298 298 296 296 297 296 296 297 297 298 298 299 298 297 296 295 295 294 293 293 293 292 291 291 290 290 290 290 290 289 290 289 288 287 287 286 285 284 283 284 284 284 285 285 284 284 284 284 284 283 282 282 282 282 284 282
283 286 282 279 284 284 290 289 289 289 287 287 289 285 288 291 294 296 293 291 289 289 291 292 293 293 293 293 292 292 294 295 294 295 296 297 298 299 299 299 298 298 297 298 297 296 296 296 296 296 297 297 297 298 297 296 295 294 293 294 292 292 292 291 291 290 290 289 290 289 289 289 289 288 287 287 286 285 285 284 283 284 284 285 284 284 284 284 283 283 283 282 282 281 282 281 281
280 286 282 285 281 283 285 293 288 290 288 288 291 288 285 286 291 294 291 291 289 289 290 291 292 292 293 294 293 293 294 294 294 294 295 296 297 299 299 299 299 298 298 298 297 296 295 295 296 296 295 296 297 297 296 295 293 292 292 292 291 292 292 291 290 290 289 289 289 290 289 289 289 288 287 287 287 285 285 284 283 284 284 284 283 283 283 284 283 283 282 283 281 281 281 281 281
284 282 283 282 284 284 283 286 293 286 290 286 288 286 288 291 290 291 292 291 288 288 290 292 293 294 295 294 293 293 294 295 296 297 296 295 296 297 299 300 299 299 298 298 298 297 296 295 295 296 296 296 296 296 296 295 293 292 291 290 291 291 291 291 290 289 289 289 289 289 289 289 289 287 287 287 286 286 285 283 283 283 284 283 283 283 283 283 282 282 281 281 281 281 280 280 281
283 281 280 283 281 283 286 283 286 285 286 286 284 286 288 290 291 292 293 292 292 293 293 294 294 294 295 295 294 294 294 295 297 299 298 296 295 296 297 298 298 298 299 298 297 297 296 295 295 295 295 295 295 296 296 294 292 290 288 289 289 290 290 289 289 288 289 289 289 289 289 289 289 287 287 287 286 286 284 283 283 283 284 283 283 283 282 283 282 280 282 281 281 280 280 280 280
286 285 284 281 282 282 282 287 290 288 289 285 284 287 289 290 290 291 293 293 291 294 295 294 294 294 294 294 294 295 296 297 299 300 299 296 296 296 296 296 297 298 298 297 297 296 296 294 294 294 295 295 295 295 295 293 291 290 289 287 288 289 289 289 288 289 289 289 290 289 289 289 289 288 287 286 286 286 284 283 283 283 283 283 283 282 282 282 281 281 281 282 282 281 281 280 280
285 284 283 284 284 285 286 288 289 286 284 285 288 289 289 289 290 291 292 293 291 292 293 294 294 294 294 294 295 295 295 297 300 300 299 297 295 295 295 295 296 296 296 296 296 296 296 295 294 293 295 294 294 294 294 293 291 290 289 289 289 290 290 290 289 289 289 289 289 289 289 289 289 288 287 286 286 286 284 283 283 283 283 283 283 283 283 282 281 281 283 282 280 279 280 279 280
285 285 282 285 282 285 288 288 289 285 285 281 284 287 288 289 291 292 293 292 292 293 293 294 295 295 295 295 295 296 297 298 298 297 298 294 294 293 293 294 294 294 295 295 296 296 296 295 294 294 294 294 294 294 294 293 293 292 291 290 291 290 290 289 289 289 289 289 289 289 289 289 288 288 287 286 286 285 284 283 283 283 283 283 283 282 281 283 282 282 282 279 279 278 279 279 279
285 285 284 282 284 286 289 289 291 287 284 286 285 286 288 289 290 292 292 292 294 295 295 295 295 296 296 296 295 296 297 297 297 297 297 295 293 293 293 293 294 296 296 295 296 296 295 295 295 294 294 294 294 294 294 294 293 293 292 291 291 290 290 290 290 290 290 288 288 288 288 288 288 287 287 287 286 285 284 284 283 283 283 283 282 282 282 281 281 282 281 281 279 279 280 281 279
283 283 281 283 285 283 284 284 282 283 286 284 285 286 288 289 291 292 293 294 294 295 295 295 295 295 296 297 297 297 296 296 297 297 297 294 292 293 291 292 293 294 294 294 295 295 295 295 295 294 294 294 294 294 295 294 294 292 290 288 289 289 288 289 288 287 288 287 287 287 288 288 288 287 287 286 286 285 284 284 283 283 283 283 283 282 281 281 281 281 280 281 281 279 278 279 281
284 285 285 284 284 286 285 284 283 284 285 282 284 286 288 289 288 288 291 293 292 293 294 294 295 295 296 297 297 296 296 297 297 297 297 295 292 291 291 292 291 293 294 295 295 295 296 295 295 294 294 294 294 294 294 293 292 289 288 287 287 286 286 287 285 285 287 287 287 286 287 288 288 287 287 286 286 285 284 284 283 283 283 282 282 282 282 281 281 282 281 281 280 281 278 277 280
286 283 286 287 288 286 284 285 284 280 282 280 281 282 286 283 286 287 288 287 287 290 290 292 293 294 295 294 294 295 295 296 295 296 296 296 293 292 290 290 291 293 294 295 295 296 296 295 295 294 294 294 293 293 294 293 292 291 288 288 286 287 286 285 286 287 286 286 287 288 287 287 287 287 286 286 286 286 284 284 283 283 282 282 282 282 282 280 280 281 281 281 279 279 280 278 278
284 283 286 288 287 285 284 284 282 278 276 282 282 279 281 284 283 286 284 284 288 288 288 291 293 294 293 292 292 294 295 293 292 293 294 293 292 291 290 290 291 292 294 295 294 294 294 295 294 294 294 293 293 293 293 293 291 291 290 290 290 289 288 288 289 289 288 288 289 287 287 287 287 287 286 286 286 285 284 284 283 283 283 282 283 281 281 281 281 281 281 280 279 281 280 278 279
283 282 282 284 283 283 284 282 283 281 280 282 283 281 278 282 284 287 288 286 286 288 290 291 292 293 291 291 292 292 294 293 293 292 292 292 292 292 293 293 292 293 294 292 293 293 294 294 293 293 293 293 293 293 293 293 292 291 290 290 290 290 290 290 289 289 289 288 288 287 287 286 286 287 286 285 285 285 284 283 283 283 282 282 283 282 282 281 281 281 281 280 279 281 280 281 278
282 284 283 283 283 283 282 282 280 279 280 279 280 281 280 278 284 282 285 284 287 288 290 291 293 291 291 292 293 293 294 293 291 292 292 291 292 292 292 293 293 292 292 293 293 294 294 293 293 292 293 293 292 292 292 292 292 291 291 290 290 291 291 290 288 289 288 288 287 286 286 286 286 286 286 285 285 285 285 284 283 283 282 282 283 282 281 280 280 280 280 279 279 279 279 280 279
283 283 282 281 281 281 281 280 280 279 276 279 279 282 278 281 287 282 281 284 284 287 290 292 291 291 292 294 294 294 293 291 292 292 291 291 290 291 291 290 290 291 291 292 291 292 291 290 291 291 291 292 292 292 292 292 292 292 290 290 290 290 290 287 287 287 287 286 286 285 286 285 285 285 285 285 284 284 284 284 283 283 282 282 283 281 280 280 280 280 281 280 280 279 278 279 279
284 284 285 281 280 278 277 277 277 277 273 280 281 282 282 279 283 282 282 285 285 287 288 289 290 290 291 291 292 293 292 291 290 289 289 289 289 288 288 289 289 288 288 290 290 289 289 290 290 290 291 291 291 291 292 291 291 291 291 291 290 290 289 286 285 285 285 284 286 285 285 285 285 285 285 284 285 284 284 284 283 283 283 283 283 281 280 280 280 280 280 280 279 279 279 279 281
286 286 281 282 283 277 277 268 275 274 275 280 282 283 283 279 280 281 282 282 282 285 287 290 289 290 291 290 290 290 289 290 290 289 291 289 290 290 288 288 288 287 288 289 288 288 289 289 289 289 289 290 290 291 291 291 291 291 291 291 290 290 289 288 287 286 285 285 286 285 285 285 284 285 284 284 284 284 284 283 283 283 282 282 282 281 281 280 280 280 280 280 279 279 278 279 278
285 282 283 279 274 272 269 271 270 271 277 277 280 281 278 281 287 283 286 287 286 285 288 290 289 290 289 289 290 291 291 290 290 290 290 292 291 291 290 289 287 287 288 287 288 287 288 288 288 289 289 289 290 290 290 291 291 291 291 290 290 290 289 289 288 287 286 286 286 285 284 284 284 284 284 284 284 283 284 283 282 282 282 282 282 281 281 280 280 280 280 279 279 279 279 279 278
283 283 280 277 272 269 269 264 263 268 275 276 279 281 280 283 284 288 291 294 294 290 288 288 288 289 288 289 290 291 292 290 290 289 289 289 291 292 291 289 288 287 286 287 287 287 287 288 288 288 289 288 289 289 290 290 290 291 291 291 290 290 290 289 288 288 287 287 287 286 285 285 285 285 285 284 285 284 284 284 283 283 282 282 282 281 280 280 280 280 280 279 279 279 279 279 278
285 284 285 283 280 272 269 270 277 278 279 276 276 276 275 273 281 282 289 289 285 283 285 285 285 286 287 288 288 288 289 290 289 289 290 290 290 290 290 290 289 287 287 286 286 287 287 288 288 288 288 288 288 289 289 289 290 290 291 291 290 290 290 289 289 289 288 287 286 286 286 286 285 285 285 285 285 284 284 284 283 282 282 282 282 281 281 280 280 280 280 279 279 279 279 279 278
284 283 282 279 282 282 281 282 280 282 277 273 273 277 276 282 284 286 285 285 286 285 285 284 286 286 285 287 289 289 290 291 291 290 291 289 289 289 289 289 289 288 287 286 286 287 287 288 288 288 288 288 288 288 289 289 290 290 290 290 290 290 290 290 289 289 288 288 287 287 286 286 286 286 285 285 285 284 284 283 283 282 282 281 281 281 280 280 280 279 279 279 278 279 279 278 278
283 284 281 285 284 286 282 283 282 278 276 278 279 278 282 284 288 286 283 285 288 287 286 285 286 284 283 286 288 288 289 290 291 292 290 290 288 288 289 288 288 287 287 287 287 288 288 288 288 288 288 288 288 289 289 289 289 289 289 289 290 289 289 289 289 288 288 287 287 287 287 286 286 286 285 285 285 284 284 283 283 282 282 281 281 281 280 280 279 279 279 279 278 278 278 278 278
284 279 283 286 286 286 284 277 277 278 277 279 286 282 283 282 281 284 284 283 283 283 284 281 282 282 284 288 288 288 289 290 289 289 289 288 288 289 289 290 289 289 289 288 288 287 288 288 289 288 288 288 288 288 288 288 288 288 289 289 289 289 289 289 289 288 288 287 286 286 286 286 285 286 285 285 284 284 284 284 283 282 282 281 281 280 280 280 279 279 279 279 279 278 278 278 277
286 285 287 285 280 280 281 276 274 275 275 278 282 284 283 284 285 289 289 291 291 287 285 282 287 287 288 287 287 288 288 289 290 290 290 290 290 291 292 292 291 291 290 288 288 287 287 287 288 288 289 289 289 289 288 288 288 289 289 289 289 289 289 289 289 288 287 287 286 286 286 286 284 285 285 284 284 283 283 283 283 282 281 281 280 280 280 279 279 279 279 278 278 278 278 277 277
286 287 286 286 284 282 279 281 279 281 277 279 278 284 281 288 288 289 286 289 289 285 283 285 287 287 288 286 288 289 291 290 290 291 293 294 294 293 292 292 291 290 290 289 288 286 286 287 287 288 288 287 287 287 287 288 288 288 289 288 288 289 289 289 288 288 287 286 286 286 285 285 285 285 284 284 284 283 283 283 283 282 281 281 280 280 280 279 279 279 279 278 278 278 278 277 277
284 284 282 285 284 285 284 282 280 280 279 278 278 277 283 289 292 289 287 285 285 286 289 289 289 287 287 287 288 291 290 290 291 294 294 293 293 292 292 290 291 288 287 288 289 289 289 287 287 287 287 287 287 288 287 288 288 288 288 288 288 288 288 288 287 287 287 286 286 286 285 286 284 284 284 284 284 283 283 283 282 282 281 281 280 280 280 279 279 279 279 278 278 278 277 277 277
288 287 285 287 284 282 279 277 285 281 280 277 278 276 284 291 294 294 292 287 286 287 287 290 290 287 288 290 289 288 288 291 292 291 291 290 289 289 289 289 289 289 289 290 291 289 289 289 289 288 287 286 287 287 288 288 288 289 288 288 288 288 288 287 287 286 286 286 286 286 286 285 285 285 284 284 284 283 283 283 282 282 282 281 280 280 280 280 279 279 278 278 277 277 277 277 276
Wind_Speed
4 4 2 1 3 2 2 6 0 3 2 4 3 0 3 1 2 4 3 2 0 2 2 2 6 6 4 4 9 5 2 8 8 8 4 2 2 4 5 2 1 5 8 6 5 5 6 8 12 12 13 13 13 13 12 12 11 11 10 10 10 10 10 9 10 10 11 11 12 11 12 11 10 10 10 9 9 9 8 8 9 9 10 10 10 10 13 15 15 15 15 15 15 14 13 13 13
3 2 2 0 0 1 1 1 3 3 4 3 6 2 4 2 1 5 4 6 3 0 3 0 3 0 3 2 2 1 3 6 7 1 3 3 6 2 6 3 4 9 6 5 4 4 4 5 9 11 13 13 13 13 13 12 11 10 10 11 10 10 10 11 11 11 12 12 11 11 10 10 10 10 9 8 8 8 7 7 7 8 10 11 11 10 11 11 13 14 13 14 14 13 12 13 13
2 4 0 3 3 4 2 4 3 1 0 3 8 7 2 1 4 6 8 7 2 2 1 1 1 0 1 2 1 4 7 0 1 2 2 4 2 7 8 4 4 5 6 4 4 4 4 5 8 9 12 12 11 11 11 11 11 10 10 11 11 11 11 11 11 11 11 10 10 9 9 9 8 7 6 7 7 6 6 7 7 7 6 8 9 11 11 12 12 12 13 13 12 12 12 13 12
0 4 2 3 2 3 1 3 3 4 2 5 5 5 3 3 6 7 5 7 3 0 1 1 3 1 3 4 3 2 5 3 5 5 1 5 8 4 9 7 6 4 4 3 3 4 4 5 7 9 13 12 12 11 10 10 10 10 10 10 10 10 9 9 10 9 8 8 8 8 7 7 7 7 5 6 6 5 4 4 6 5 5 7 7 8 11 11 12 13 12 11 11 12 12 12 12
1 2 2 3 3 1 1 0 2 3 4 5 3 4 5 5 6 4 3 2 4 3 0 1 0 1 1 2 0 1 3 2 3 5 1 3 1 4 8 7 5 6 6 4 3 3 3 5 6 8 11 13 13 11 11 11 11 11 10 10 10 10 9 8 9 8 7 7 7 7 7 6 5 5 4 4 6 5 5 6 6 6 6 6 7 10 11 11 12 12 11 10 11 12 12 12 12
3 2 4 1 0 2 5 0 1 3 8 5 1 4 3 6 4 2 5 6 2 3 2 1 1 0 1 3 4 1 3 0 1 1 3 4 5 6 8 6 6 7 5 4 4 4 4 4 6 7 14 15 11 12 11 11 10 13 12 10 10 9 10 9 8 8 8 7 7 7 7 6 6 5 5 6 6 6 6 8 9 9 9 10 10 10 11 11 11 11 11 11 12 12 13 13 13
1 3 5 4 2 4 4 2 5 5 9 7 4 6 8 3 4 0 3 1 1 1 3 1 1 0 1 3 2 4 2 1 2 1 5 1 5 8 8 6 6 7 6 5 4 4 4 6 7 10 11 10 14 13 13 12 13 11 11 13 12 11 11 11 11 11 10 10 10 9 9 8 8 7 7 7 7 7 8 9 10 10 10 11 10 11 11 11 11 11 11 12 12 12 12 13 13
2 1 1 1 1 2 1 2 5 5 5 7 3 4 9 3 1 0 2 1 2 2 1 2 0 2 7 2 2 1 2 3 1 0 1 2 6 8 8 7 8 7 6 4 4 4 5 7 8 11 11 11 8 9 11 11 11 11 12 12 12 10 11 10 10 9 8 8 8 8 8 9 9 9 9 9 8 8 9 9 10 10 10 11 10 11 11 11 11 12 12 12 13 12 13 13 13
5 5 0 3 1 2 1 5 5 3 8 3 9 7 10 5 4 2 4 3 2 1 1 2 4 2 3 3 4 2 5 1 3 3 2 4 8 9 8 8 8 7 6 4 4 4 5 8 9 11 11 12 13 13 13 13 13 13 13 12 12 11 12 11 10 10 9 9 9 9 10 10 10 10 11 11 10 10 10 11 11 11 11 11 11 11 11 11 12 12 12 13 13 13 13 13 13
2 2 2 1 3 3 3 7 0 5 5 3 5 8 6 1 1 4 3 4 6 1 1 1 3 6 1 4 5 5 1 3 1 1 1 5 7 8 7 7 5 7 5 5 4 4 4 8 11 11 11 13 14 14 14 14 13 13 13 13 13 12 12 11 11 11 11 10 10 11 11 11 11 12 12 12 12 11 11 12 12 12 12 12 11 11 12 12 12 12 13 13 13 13 13 13 13
1 5 2 1 1 1 4 7 4 7 4 4 9 12 12 4 3 1 4 3 1 3 1 4 1 6 0 4 5 1 3 2 3 5 5 6 5 8 7 5 5 7 7 5 4 4 4 5 9 9 10 11 11 13 14 14 14 14 14 14 13 13 12 12 12 12 11 12 12 11 12 12 13 13 13 12 12 12 12 12 13 13 13 13 13 13 12 12 12 13 13 12 12 12 13 13 13
1 1 2 1 2 3 4 3 6 9 8 4 5 2 1 3 3 1 2 3 1 3 3 7 1 4 1 2 4 2 4 3 6 2 7 5 5 5 6 4 5 5 5 5 4 4 4 4 4 6 9 8 10 12 12 13 14 14 14 14 13 13 13 13 12 12 13 13 12 13 13 13 13 13 13 13 13 13 13 13 13 13 13 13 13 13 13 13 13 13 13 12 12 12 13 13 13
3 1 5 2 1 1 1 2 7 4 6 5 4 1 1 6 4 4 2 2 0 2 4 12 1 1 3 3 4 4 2 5 4 2 5 6 5 3 4 4 4 4 5 5 5 5 5 5 4 4 6 8 9 9 9 11 11 13 14 14 14 13 13 13 13 13 13 13 14 14 13 13 13 13 14 13 14 13 13 14 14 14 14 14 14 14 14 13 13 13 13 13 12 13 13 13 13
3 5 4 2 2 0 1 4 2 4 6 4 3 2 0 0 3 3 4 2 5 3 2 2 1 3 3 2 7 3 4 3 3 3 4 5 4 3 4 4 4 4 4 5 6 6 5 4 5 4 4 5 5 6 8 10 10 11 13 13 13 13 13 13 13 13 13 13 13 13 13 13 13 13 13 14 14 13 14 14 14 14 14 14 14 14 14 14 13 13 13 13 13 13 13 13 14
1 2 4 2 0 1 3 1 1 1 7 2 2 1 1 5 1 1 5 2 9 4 0 1 4 3 5 5 7 3 1 0 3 4 6 5 4 4 3 3 4 3 4 4 5 6 6 5 5 5 5 4 5 5 4 7 9 10 10 10 10 13 14 13 12 12 12 12 12 12 11 10 10 11 12 13 13 13 13 12 13 14 14 14 14 14 14 14 14 13 13 13 13 13 14 14 14
5 5 3 0 2 1 5 3 0 0 8 1 3 1 1 6 2 1 5 5 2 1 0 4 0 4 2 4 3 1 2 3 3 6 7 6 4 3 3 2 3 3 4 4 5 6 6 5 5 6 5 5 4 5 6 5 7 9 9 10 11 12 12 11 10 11 9 10 10 10 9 7 7 6 10 8 11 11 9 8 12 14 14 14 14 14 14 14 13 14 13 13 13 13 14 14 14
2 4 0 2 5 3 4 3 3 3 5 3 5 1 1 4 1 3 1 0 2 3 0 2 5 0 4 4 1 3 1 4 6 7 6 5 5 3 1 2 3 4 4 6 6 7 6 7 6 6 5 5 5 5 5 5 6 9 8 10 10 10 10 10 10 9 10 9 8 8 8 5 4 4 5 5 8 5 9 10 11 14 14 14 14 13 14 14 14 13 14 14 14 14 13 13 14
1 2 3 2 5 3 6 6 9 1 1 4 5 1 1 5 3 1 1 1 1 2 3 5 4 7 3 1 0 2 4 8 7 10 7 7 6 5 6 6 5 10 8 7 7 7 8 7 8 7 6 6 6 6 5 4 4 6 5 5 5 7 8 9 7 6 7 6 8 7 5 4 5 4 4 6 4 5 7 10 11 13 14 14 13 13 13 13 13 14 14 14 14 13 12 7 6
3 2 2 7 5 8 8 5 6 1 7 4 4 2 2 8 1 2 1 4 2 5 5 1 6 10 4 1 3 6 7 7 9 10 12 13 11 13 12 9 9 5 9 9 9 10 8 7 6 8 7 6 6 5 5 5 5 4 5 5 5 6 6 6 6 6 5 6 5 5 4 4 4 4 4 4 5 7 7 10 11 13 14 14 14 14 13 13 13 13 14 13 13 12 7 5 5
3 4 5 7 8 5 5 4 6 9 2 6 7 4 3 4 1 0 2 7 4 8 9 5 6 12 10 4 3 5 7 9 10 12 14 15 14 14 11 11 11 12 12 12 11 7 7 9 10 8 8 7 7 6 5 5 5 5 5 5 5 5 5 6 5 5 6 5 6 5 5 4 4 4 5 8 7 5 6 8 10 11 12 11 11 8 11 12 13 13 13 12 8 5 5 5 5
1 2 4 5 3 2 6 9 10 8 1 3 4 1 4 6 5 1 2 5 10 10 10 11 13 12 13 5 7 6 9 9 10 11 12 13 13 10 13 15 17 16 10 5 5 10 11 10 8 8 7 7 7 7 6 7 5 6 5 6 5 5 6 6 6 6 5 6 5 5 5 4 4 5 4 5 6 5 5 5 5 5 5 6 8 6 6 6 6 6 6 6 5 5 5 4 4
3 9 5 5 1 2 6 7 6 4 3 3 3 5 9 1 1 5 5 8 13 8 8 11 14 13 9 7 9 5 8 11 13 13 15 15 17 17 12 9 6 3 4 8 13 10 11 10 9 8 7 8 8 8 8 7 7 7 6 6 6 5 6 6 6 6 6 6 5 5 5 5 5 6 4 4 4 5 5 5 5 5 5 5 4 6 5 5 5 5 6 6 5 4 5 4 3
5 3 5 6 6 5 1 2 4 3 2 3 4 4 4 3 8 4 7 12 16 11 6 8 11 10 7 1 6 7 9 12 13 16 16 14 14 14 14 12 11 12 10 13 9 8 8 9 9 9 10 9 9 7 7 7 7 7 7 7 7 6 6 6 6 6 7 6 6 6 7 6 6 6 5 5 5 5 5 6 6 5 6 6 5 7 6 5 5 5 5 5 4 4 4 4 4
2 8 0 6 5 10 8 6 1 3 4 8 3 5 7 7 13 1 8 12 19 17 7 8 7 5 3 5 8 12 15 16 18 19 18 21 21 21 19 17 15 8 5 9 8 9 10 13 11 10 10 10 9 8 8 8 7 7 7 7 7 7 7 7 7 7 7 7 6 6 6 7 7 7 5 6 6 4 5 5 5 5 6 5 4 6 7 5 6 5 5 4 5 4 4 4 4
4 7 4 5 1 6 8 6 5 6 10 9 3 6 19 10 9 3 9 10 15 18 8 8 9 8 6 7 9 10 10 11 13 15 10 11 10 11 8 7 5 6 12 11 9 10 12 12 12 13 11 11 9 8 9 7 7 7 7 8 8 8 8 7 8 7 7 7 6 7 6 7 6 6 6 6 5 5 5 5 5 6 5 5 5 5 6 6 6 5 5 5 4 4 4 4 3
7 13 1 3 4 5 6 6 5 7 7 3 1 13 17 13 6 14 21 17 21 16 10 8 9 8 9 11 11 10 12 14 14 11 17 12 7 8 13 11 9 12 16 11 11 11 8 10 14 15 14 12 11 9 9 8 8 9 9 9 8 8 8 7 7 8 7 8 7 6 7 7 7 8 7 6 6 6 5 4 5 5 5 5 5 6 4 6 6 6 5 4 5 4 4 3 3
4 3 3 6 7 5 6 6 5 4 5 4 7 11 16 3 4 14 5 12 5 4 8 5 5 9 10 9 9 9 11 15 17 14 4 6 10 13 16 12 13 18 10 13 12 10 9 10 13 13 12 11 9 11 10 10 9 10 9 8 8 9 8 7 8 8 7 8 8 8 7 6 7 6 6 7 5 6 5 5 5 5 6 5 5 5 3 5 5 5 5 5 5 5 4 2 3
1 1 4 7 6 7 9 4 10 1 8 10 11 13 10 5 2 17 18 7 1 5 10 8 6 8 9 9 10 9 9 14 7 5 14 11 14 16 16 14 18 15 13 16 13 10 10 14 13 12 13 12 12 12 10 10 11 10 9 8 9 8 7 8 8 8 8 8 7 8 7 7 6 6 6 6 6 6 6 5 5 5 5 4 4 5 5 4 4 4 4 3 3 4 4 3 3
1 1 5 8 6 9 10 6 7 9 8 6 7 2 5 4 8 19 18 5 2 5 10 12 9 10 9 8 8 8 13 10 6 9 16 16 15 12 17 18 17 15 14 14 11 10 15 13 13 13 13 12 14 14 13 11 9 9 9 10 8 8 8 7 8 9 8 8 8 8 8 7 6 7 7 7 6 6 5 5 5 4 4 5 4 4 5 4 5 5 4 3 4 3 4 3 2
1 1 1 9 7 9 9 4 2 6 4 7 6 9 7 13 18 17 14 6 2 4 9 11 12 9 8 7 8 10 10 7 9 15 15 14 14 13 16 15 15 14 11 9 9 14 12 8 10 9 13 15 16 13 11 10 11 10 9 8 8 9 8 9 9 7 7 8 8 8 8 8 7 6 7 6 6 6 5 5 5 5 4 4 4 5 6 5 5 5 5 4 3 3 4 2 2
4 3 1 5 5 10 2 1 3 2 3 9 3 10 5 10 14 21 9 2 5 8 9 9 11 10 8 8 7 10 12 10 15 16 15 15 13 10 16 12 12 14 8 8 15 17 12 13 11 11 14 16 15 15 15 13 11 11 10 9 9 10 9 9 8 7 7 8 8 8 8 8 8 7 7 8 7 6 6 5 5 5 4 4 5 5 6 5 5 6 6 6 3 4 3 2 2
1 3 6 3 6 7 12 5 6 10 1 2 5 10 13 12 16 20 6 1 2 6 8 10 11 10 9 8 8 9 13 10 11 13 15 16 14 13 14 16 13 11 15 16 14 9 14 13 13 13 14 16 17 17 15 13 12 11 10 9 9 9 9 9 8 9 8 7 8 8 8 8 8 8 8 7 7 7 6 6 5 5 5 5 5 5 5 6 5 5 3 5 6 2 3 2 2
3 6 6 10 3 6 9 12 3 9 2 1 10 13 1 7 15 14 8 2 3 5 8 9 13 12 12 11 9 9 11 13 11 14 15 15 13 14 15 15 14 17 16 14 14 13 13 14 15 16 17 19 17 14 12 10 10 10 10 10 10 9 9 9 8 7 7 8 7 8 8 9 8 8 8 8 7 7 7 6 5 5 5 5 6 5 5 5 6 5 3 0 1 5 3 3 1
7 1 7 4 8 3 5 9 13 2 7 5 7 7 13 12 6 8 11 9 5 6 10 13 14 13 14 12 10 11 12 15 18 17 16 13 13 14 15 14 12 12 12 14 14 16 17 15 15 16 14 13 13 14 14 12 10 8 7 7 8 9 9 8 8 8 8 8 8 9 9 9 9 9 8 8 7 6 6 6 5 6 6 6 6 5 5 4 3 4 5 2 3 5 4 3 2
9 5 5 8 4 7 12 2 5 3 2 5 1 11 18 15 10 12 15 9 14 18 16 16 16 15 16 14 12 14 15 17 21 20 12 11 12 12 13 12 10 11 11 13 12 12 10 12 12 13 13 13 12 12 11 8 7 6 4 6 6 7 7 7 7 7 8 8 10 10 10 10 9 9 9 9 8 8 7 7 7 6 6 6 6 6 5 5 4 3 5 5 2 3 5 3 2
14 11 8 2 6 6 6 13 11 7 14 7 8 17 16 13 13 12 14 12 9 20 20 16 15 14 14 14 14 15 16 18 20 19 12 7 9 10 9 8 9 10 10 10 12 12 12 10 10 11 12 13 12 10 10 10 8 9 10 6 6 8 8 8 8 10 9 10 11 10 10 10 10 10 10 10 9 8 8 8 8 7 7 7 8 8 8 8 9 7 6 8 7 3 2 1 1
2 1 3 11 11 11 7 13 9 0 4 9 18 21 17 16 14 13 14 14 9 14 22 20 16 15 13 14 15 17 17 21 20 14 12 7 7 7 6 7 9 9 10 11 12 14 14 15 14 17 14 14 13 13 13 13 14 11 8 12 14 12 12 12 11 11 11 11 11 11 11 10 10 10 10 10 10 9 8 7 8 7 7 8 8 10 8 8 6 6 7 4 5 4 1 1 1
5 6 5 12 4 15 12 9 7 2 2 2 6 17 21 18 14 13 13 12 20 19 20 21 21 18 15 15 16 19 20 14 10 11 13 6 6 5 6 7 7 9 11 12 16 17 16 15 16 15 11 13 15 16 15 15 15 17 18 19 17 14 13 13 14 12 13 11 11 10 10 10 11 11 10 11 10 11 10 9 9 10 9 9 7 4 5 5 6 6 7 4 1 4 2 1 0
7 9 7 7 10 11 11 13 14 5 1 13 8 17 18 13 13 13 14 19 20 19 17 14 14 21 19 14 15 17 16 15 12 13 11 6 5 6 7 8 9 13 12 15 15 12 12 13 15 13 13 15 15 15 13 15 13 12 12 8 11 9 8 9 8 9 9 10 10 10 10 10 11 10 11 11 11 11 11 10 10 9 10 8 8 8 7 8 8 10 9 9 5 2 2 1 0
6 7 5 13 3 2 10 1 3 1 1 9 9 21 22 9 15 20 21 20 18 16 11 13 16 19 23 22 17 14 11 14 16 14 11 6 5 7 5 6 7 6 7 8 10 13 12 14 14 14 14 15 14 15 15 12 10 6 4 3 5 5 6 5 5 5 7 7 10 11 11 11 12 12 11 12 10 11 12 12 10 9 10 10 10 10 10 10 9 8 7 5 9 5 2 1 0
6 10 10 9 9 14 10 6 7 7 5 3 11 16 20 8 11 6 13 11 11 14 14 16 16 16 21 22 15 7 13 16 15 16 13 8 5 5 5 6 4 7 9 11 11 13 12 17 16 16 14 15 13 14 14 10 9 7 6 6 5 6 5 6 5 5 9 9 9 11 13 11 11 12 12 13 12 13 11 11 11 11 10 10 9 9 10 12 12 10 10 8 9 9 7 2 1
11 5 9 18 16 9 8 8 7 6 9 4 4 10 15 1 5 8 6 2 4 8 10 17 20 20 20 12 12 12 11 10 10 14 15 9 6 6 4 4 6 8 11 11 10 13 11 11 11 12 11 11 13 14 15 13 13 14 12 11 11 10 9 10 15 17 12 14 17 10 9 13 13 12 11 13 12 11 12 12 11 11 11 10 10 10 9 6 8 9 11 10 8 4 8 7 3
9 7 13 16 12 8 7 12 3 6 3 2 1 1 20 4 3 6 5 2 9 7 9 18 19 19 8 2 7 10 11 6 5 9 7 7 5 5 5 6 9 10 12 8 7 8 10 9 11 13 13 12 12 13 16 13 13 13 17 18 16 17 18 16 14 11 14 13 9 12 13 11 12 13 12 13 13 12 12 11 11 11 11 10 9 8 8 11 11 10 7 7 7 7 8 6 9
9 1 5 6 6 8 8 5 6 8 1 4 1 1 5 22 4 7 9 7 8 10 15 18 19 9 7 6 7 9 11 7 6 5 4 4 5 6 8 9 8 12 9 5 7 7 10 12 11 13 11 11 12 12 15 16 16 15 15 15 14 15 17 16 14 14 11 10 12 13 11 11 12 12 13 12 13 13 12 11 11 10 11 10 10 10 11 9 7 4 7 5 5 7 9 10 8
5 1 6 3 6 6 2 5 6 2 4 10 6 3 4 9 6 4 3 2 8 13 18 18 13 6 6 8 9 9 10 4 4 4 5 5 6 7 7 9 8 6 6 7 8 8 7 7 8 9 12 12 12 15 16 17 15 16 16 15 15 14 13 8 7 7 9 10 12 9 10 10 11 11 11 13 12 12 12 13 12 11 11 11 10 9 8 8 11 11 10 8 9 7 6 6 10
4 5 7 5 5 5 2 3 3 1 2 13 8 7 5 17 13 3 4 1 6 11 14 14 8 8 9 10 10 11 5 5 1 1 3 6 7 7 6 5 6 5 5 5 4 2 3 4 6 8 11 10 10 13 15 16 16 13 14 16 17 14 9 6 7 9 9 8 11 10 10 9 10 10 11 11 11 13 13 12 12 14 13 12 11 11 9 9 9 9 11 10 8 8 5 7 10
4 3 2 2 5 3 2 5 3 1 4 11 14 11 8 13 5 7 6 6 7 5 5 9 6 5 10 8 7 7 8 6 4 4 5 6 5 7 6 6 5 4 3 2 3 4 4 5 6 8 9 8 11 14 15 17 15 15 16 17 17 14 11 9 9 10 9 9 12 11 11 10 10 11 10 10 12 12 13 13 13 13 12 11 11 11 12 11 11 10 9 6 7 9 8 7 4
3 1 2 3 4 5 1 3 2 3 10 5 12 15 13 13 3 3 5 4 4 5 6 9 11 5 9 6 5 4 4 5 5 5 8 6 7 8 6 5 5 3 2 1 2 3 5 5 6 8 6 7 7 11 13 15 15 16 15 16 16 15 13 12 14 14 13 14 13 12 11 9 10 9 10 11 12 12 12 11 11 11 11 12 13 11 10 10 9 8 8 8 8 6 5 7 7
3 3 1 1 5 6 3 2 1 5 11 3 4 5 3 19 13 5 10 9 6 8 8 8 8 9 6 6 7 7 5 5 4 5 6 7 5 6 7 7 4 3 3 4 4 4 4 5 7 9 10 8 9 9 13 14 14 16 16 15 13 12 13 14 14 13 12 14 13 12 12 12 10 10 13 14 14 15 13 12 13 13 12 12 11 10 10 10 10 9 10 10 9 10 10 10 10
7 7 5 4 3 3 6 4 2 6 6 3 6 1 10 6 7 8 16 21 16 6 7 9 7 7 8 9 9 8 7 5 4 5 5 5 5 6 5 4 4 4 4 4 4 4 4 5 6 9 9 8 8 9 11 13 16 15 13 13 13 12 13 13 12 13 13 12 12 14 15 15 15 17 16 17 16 15 14 15 13 13 12 11 12 12 12 11 11 11 11 11 12 10 8 10 9
13 3 11 11 9 5 4 5 9 8 7 2 3 4 9 2 5 2 10 6 5 3 4 3 3 5 5 7 8 7 6 5 4 4 5 6 6 5 5 4 4 4 4 4 4 4 4 5 6 9 8 9 11 12 11 15 14 13 12 13 12 12 13 12 12 12 12 13 12 13 14 13 14 14 15 13 11 15 15 13 14 13 13 12 11 11 11 11 11 9 9 11 9 8 9 9 8
3 2 4 1 9 4 10 5 4 7 2 1 2 7 4 7 2 6 6 6 5 5 2 3 3 4 3 5 6 5 6 8 7 6 6 6 5 5 3 4 4 4 4 4 5 5 6 7 7 9 11 11 12 12 14 14 13 10 11 13 15 13 11 11 10 11 12 14 14 14 14 14 13 11 10 11 13 13 14 14 12 13 12 12 12 11 11 11 11 11 9 9 10 7 10 11 9
0 4 6 8 2 3 4 5 2 2 1 12 3 7 9 6 11 5 4 3 8 5 5 5 6 5 3 4 7 5 4 7 8 8 7 6 8 7 5 3 3 3 3 4 6 7 8 7 8 9 9 8 11 13 13 11 11 10 13 12 11 12 14 15 16 14 12 9 10 11 12 14 11 11 13 13 14 14 14 14 14 13 13 12 12 12 11 10 11 11 10 11 11 9 9 11 9
6 2 8 0 2 2 2 5 2 3 9 9 7 15 12 7 14 2 3 5 4 4 2 2 5 3 3 6 5 4 5 7 7 6 6 7 7 7 7 6 4 2 4 4 6 5 5 6 7 9 8 11 12 10 11 11 12 13 12 13 13 14 14 14 13 13 11 9 9 10 10 11 15 13 10 10 12 14 14 15 14 13 12 12 13 12 11 11 11 10 10 10 10 10 10 7 8
5 5 2 1 5 4 1 3 4 6 10 7 6 12 14 10 16 13 16 20 16 6 2 2 3 4 7 5 5 5 5 5 5 6 5 3 4 4 5 7 6 5 5 5 4 3 3 4 5 7 11 11 8 6 6 7 8 9 9 11 11 12 11 11 10 8 9 12 13 12 12 11 5 8 12 12 13 14 13 14 14 13 13 14 12 12 12 11 11 10 10 9 8 10 10 10 8
1 1 2 1 1 4 3 5 1 0 11 7 10 10 12 8 10 12 8 8 9 5 3 5 8 8 6 4 5 7 8 7 7 8 8 9 10 12 12 14 10 6 6 6 5 4 4 5 5 6 6 5 5 6 6 9 9 8 10 8 10 11 11 11 9 9 10 12 12 11 11 10 13 9 9 11 13 14 15 16 15 15 14 13 14 13 13 12 11 11 10 10 10 11 11 11 10
1 1 4 1 1 1 2 2 2 6 9 9 9 10 7 9 9 10 8 4 3 5 8 8 7 6 4 4 5 7 7 8 9 11 15 18 19 19 18 13 12 9 8 9 10 9 7 5 6 6 8 7 6 7 7 10 8 11 11 12 12 11 13 11 9 9 11 11 10 12 12 12 7 12 12 14 14 14 15 15 15 15 16 15 15 14 13 12 12 12 11 11 10 11 12 10 9
9 9 10 11 9 7 9 11 4 4 8 10 10 16 5 5 5 10 7 3 2 6 6 10 10 5 6 6 5 5 6 8 13 15 16 16 16 17 17 17 12 11 12 13 13 10 9 9 7 7 7 7 6 7 8 8 7 9 11 13 12 9 10 9 11 10 12 11 10 12 12 10 14 13 13 15 14 13 13 14 15 16 15 15 15 15 15 14 14 14 13 10 11 13 12 10 10
Wind_Direction
324 338 314 116 60 106 56 2 315 313 45 257 318 263 262 294 249 333 243 344 241 239 201 79 113 134 170 205 197 192 205 135 208 127 215 238 310 269 221 262 274 143 156 169 172 176 181 180 171 164 160 157 157 155 153 153 155 153 152 153 154 154 151 147 147 146 142 137 135 133 129 121 116 118 116 107 101 94 87 85 79 79 79 78 84 85 82 78 74 67 64 66 66 64 63 62 58
299 323 26 6 335 58 250 115 100 350 38 1 251 121 252 281 23 225 236 195 203 283 323 199 166 81 72 92 191 79 275 215 176 195 274 244 295 224 216 235 198 160 159 169 168 169 169 178 171 171 166 163 158 152 151 151 146 148 145 147 148 144 143 140 136 134 134 134 134 130 127 120 110 107 110 107 107 104 101 100 98 97 94 79 79 82 75 77 71 69 63 63 65 65 63 60 56
349 7 334 27 25 77 93 37 284 64 55 283 275 212 331 289 223 261 229 217 222 277 288 43 97 350 261 335 333 163 258 134 301 279 228 329 126 222 212 198 196 162 155 158 161 162 165 174 169 174 170 169 163 162 161 158 157 149 152 150 150 148 148 146 144 139 139 139 135 128 126 118 113 110 118 108 103 108 119 106 103 106 94 86 77 70 75 73 76 70 67 63 64 66 63 60 56
71 34 134 60 231 34 64 26 92 131 198 216 312 267 200 205 246 233 249 251 244 312 300 176 149 227 171 241 226 44 273 291 193 165 258 217 213 183 181 177 181 152 141 150 160 163 166 172 168 184 177 172 165 175 167 174 174 170 166 166 159 160 153 154 152 145 148 144 139 133 134 119 123 118 123 127 107 115 127 152 152 143 100 91 94 83 77 73 73 73 72 71 71 70 66 63 60
58 344 82 103 108 8 98 155 144 110 241 188 204 267 235 224 250 280 278 279 263 188 87 155 57 263 187 201 219 198 251 244 277 191 246 246 233 175 161 169 162 154 160 161 154 162 170 160 167 190 186 185 169 175 183 183 183 184 188 179 173 169 165 166 169 162 157 157 157 151 153 152 143 145 142 146 118 128 124 124 132 128 111 108 99 82 78 75 74 76 78 79 76 70 66 63 61
52 34 355 83 344 156 58 347 269 207 226 145 228 260 227 221 229 242 278 288 245 185 166 66 186 334 313 225 186 217 203 44 154 205 178 253 187 172 160 158 158 158 164 158 154 159 161 164 172 188 191 186 186 179 185 190 186 190 185 199 192 177 178 172 181 179 174 182 186 171 178 169 159 145 161 146 127 133 139 121 104 109 102 92 86 85 83 82 82 81 80 77 73 69 67 65 64
274 40 357 23 25 54 177 188 235 213 264 159 231 260 268 259 222 302 315 342 179 194 171 217 89 4 326 300 316 243 189 129 112 240 163 293 154 159 152 158 156 165 162 165 158 155 163 165 174 193 204 206 194 194 193 200 204 208 205 202 195 192 197 200 200 192 199 195 198 190 172 168 145 156 155 153 144 148 121 102 99 95 92 91 90 89 90 91 91 88 83 78 74 72 71 70 67
70 132 318 109 224 24 235 240 256 155 273 175 231 234 268 276 179 80 275 93 280 189 237 316 148 119 249 57 240 278 311 220 215 184 250 180 152 155 156 158 162 172 168 164 161 163 166 175 180 196 194 203 213 181 203 201 201 199 199 202 201 193 198 196 196 194 184 189 187 184 176 169 142 156 155 152 151 132 111 108 104 100 96 92 91 89 90 91 91 89 85 82 78 75 72 69 66
360 84 258 71 183 47 34 255 261 221 280 282 269 227 270 263 227 281 274 224 323 245 280 179 215 98 253 5 227 265 289 292 299 269 164 158 165 159 158 168 169 166 171 167 167 164 170 180 185 192 190 196 191 194 196 196 196 194 195 196 191 190 187 185 181 177 177 174 168 167 166 161 156 156 155 153 141 126 118 114 109 105 100 97 95 93 92 91 89 85 83 81 80 77 74 70 67
33 58 285 139 122 257 352 284 121 239 222 237 262 276 260 242 224 188 239 295 217 50 256 262 167 215 281 272 300 296 249 339 311 76 170 173 167 159 162 173 166 159 164 171 174 172 173 185 187 189 191 190 189 190 190 192 193 193 193 191 188 186 184 179 176 175 172 168 167 163 162 163 161 157 150 142 136 130 125 120 115 110 108 105 101 98 95 92 90 88 86 84 82 80 77 73 71
351 14 157 102 24 288 236 276 257 305 272 305 292 254 250 240 199 238 197 240 274 212 342 165 74 239 44 264 221 256 326 337 142 206 185 171 163 169 162 166 160 164 164 172 173 172 179 185 193 194 191 189 189 190 189 192 192 191 191 189 188 185 182 179 176 175 170 169 166 161 157 155 151 148 144 140 134 131 127 122 117 115 112 109 105 102 99 95 92 89 85 84 83 81 78 75 73
340 25 6 98 212 178 249 231 283 278 290 314 273 350 322 152 114 194 226 238 291 248 212 152 240 135 190 314 289 287 315 292 213 229 159 153 162 166 154 149 149 167 162 167 168 178 182 184 193 206 183 184 189 192 190 193 192 190 189 190 188 185 180 178 175 173 171 168 165 161 156 152 148 145 142 137 134 129 126 123 120 117 115 112 107 104 100 97 94 91 88 86 83 79 76 74 72
108 102 79 104 236 162 236 298 258 311 317 292 238 313 12 126 181 230 216 231 84 4 285 214 88 115 276 195 254 316 315 261 200 165 148 147 149 136 128 138 152 158 164 163 167 186 186 190 189 200 181 184 187 195 187 186 190 191 190 189 188 185 181 178 174 173 169 165 161 158 153 149 145 144 141 137 133 129 127 124 120 118 114 111 109 105 102 99 96 92 89 85 83 80 76 73 70
116 179 130 255 69 92 194 258 296 319 297 250 260 298 269 163 240 199 134 204 239 184 237 214 122 131 264 359 305 334 250 312 142 133 116 118 114 117 132 140 152 165 175 172 181 183 187 190 190 190 178 183 185 193 187 182 186 189 190 188 185 183 181 178 175 172 165 162 158 154 149 146 144 143 141 137 133 130 127 125 122 119 115 113 110 107 104 103 99 96 92 88 83 80 77 75 71
126 162 84 124 294 33 241 183 254 139 267 249 270 25 333 255 156 132 178 206 269 205 250 150 180 109 250 157 281 249 284 296 126 115 106 97 97 109 119 140 161 172 188 193 193 183 194 188 191 185 180 176 180 179 177 177 181 187 185 182 177 181 181 177 170 166 163 161 155 145 141 141 142 140 138 135 131 128 126 121 122 120 118 114 110 109 107 103 101 98 93 88 83 78 74 72 70
139 88 79 171 274 151 271 198 76 70 267 207 270 284 286 277 188 143 249 185 253 314 135 228 312 199 223 163 223 211 299 124 132 109 107 101 87 78 110 137 175 202 202 207 203 205 191 190 191 188 180 178 176 172 175 170 179 177 179 175 175 181 174 166 161 163 151 142 137 138 134 124 111 111 116 120 124 120 118 125 125 122 119 116 113 110 108 105 102 97 93 88 82 76 69 65 64
76 80 341 43 278 155 253 177 155 239 247 278 287 325 8 300 296 242 107 104 252 267 268 227 198 64 206 207 237 274 239 126 116 112 108 117 128 133 135 196 210 229 225 220 210 205 200 192 193 187 185 177 175 172 173 171 182 175 178 174 173 173 168 160 160 135 122 118 114 114 110 107 110 107 104 110 110 116 123 123 123 122 118 116 115 113 109 106 103 99 94 89 83 76 67 59 55
66 123 121 255 205 162 211 191 192 220 232 279 326 117 340 302 320 267 60 330 240 275 257 288 293 256 211 229 29 123 139 138 149 142 159 158 164 173 199 209 190 210 205 214 221 209 198 201 190 186 183 184 173 174 173 172 180 172 169 170 168 170 163 157 134 128 123 122 120 117 119 121 121 123 123 119 118 114 113 117 120 121 118 116 114 112 110 107 104 101 97 92 86 78 71 63 51
112 125 114 231 186 238 163 203 213 148 253 231 274 281 213 252 216 293 348 286 307 306 266 264 267 275 273 337 114 133 149 157 165 174 169 176 185 190 199 194 207 205 213 214 213 206 202 192 192 190 187 178 174 174 174 173 178 162 167 162 164 159 148 128 133 128 129 128 126 129 128 127 134 134 131 130 128 121 117 118 121 121 117 114 113 110 108 103 101 99 95 91 84 78 73 72 69
223 125 226 247 215 236 225 196 227 203 259 301 302 297 162 253 150 306 232 274 320 261 264 283 245 257 253 210 145 162 173 177 186 181 187 193 195 196 194 197 206 214 214 206 201 194 197 199 197 190 183 176 174 177 171 176 174 162 164 161 157 146 133 136 133 136 135 137 138 137 136 140 138 144 147 134 121 113 109 103 102 99 98 88 85 83 88 92 91 87 85 77 70 67 72 68 71
272 104 202 231 217 204 251 207 236 241 196 260 253 309 315 272 231 148 222 337 267 248 233 229 249 242 253 207 193 174 186 189 197 202 200 203 207 210 206 200 197 204 207 176 181 201 201 199 189 193 182 177 177 176 174 180 171 161 167 165 156 148 140 138 142 142 145 145 146 144 145 143 147 147 132 119 115 114 105 100 97 100 100 99 96 94 89 86 80 80 71 69 63 68 68 62 68
112 210 225 207 110 226 245 221 221 208 182 214 290 320 263 18 88 219 199 225 265 239 236 217 234 248 244 221 207 185 193 196 202 203 209 205 202 209 214 230 244 241 164 189 206 198 199 197 192 186 181 184 185 178 180 173 162 174 175 170 156 155 153 151 149 152 153 155 155 150 146 140 146 138 138 137 132 130 126 128 125 124 119 120 120 112 105 104 96 95 98 92 86 80 78 71 58
244 268 253 232 207 243 240 227 218 183 245 215 293 246 332 263 279 201 178 212 253 249 225 212 228 236 240 184 147 197 204 207 204 208 208 211 217 219 214 213 205 208 199 212 199 201 192 195 194 182 190 184 190 178 172 174 183 179 170 169 163 173 164 160 165 164 165 161 160 159 152 156 154 155 153 154 152 149 145 146 145 144 134 128 136 122 110 103 105 100 96 92 89 86 78 71 65
224 261 211 278 198 230 250 268 139 230 229 257 212 334 294 278 292 177 192 230 245 262 238 247 248 246 190 181 190 202 203 203 209 211 206 207 205 208 207 205 210 211 209 219 200 197 192 197 191 186 192 186 188 181 178 183 182 176 176 171 175 172 168 177 172 173 164 167 166 165 158 159 161 162 167 163 166 157 154 146 141 131 121 118 116 114 113 100 95 92 91 80 73 67 75 62 64
208 267 213 265 166 240 263 258 274 271 262 262 314 286 267 249 244 343 246 237 257 263 249 250 260 255 235 226 220 220 218 222 228 225 229 235 228 232 237 240 225 205 220 212 204 200 201 191 187 195 192 191 186 179 187 185 180 180 178 179 182 177 182 181 175 167 171 168 169 167 161 161 165 166 169 172 160 156 145 139 136 128 121 123 118 100 116 118 104 103 96 91 81 75 70 61 60
206 231 208 279 270 278 267 300 257 246 271 205 268 257 266 274 269 259 257 253 252 259 280 252 253 259 244 233 230 218 221 221 223 224 221 221 227 227 231 219 212 214 218 206 204 210 194 186 192 197 193 189 185 178 191 183 186 186 188 187 182 180 188 178 171 178 173 167 174 175 171 168 171 172 171 168 162 154 146 133 127 132 129 129 122 122 122 121 126 110 105 102 97 87 76 61 68
169 221 230 251 262 295 276 224 260 220 234 166 193 252 267 281 88 281 139 237 240 269 262 272 244 245 244 235 235 227 223 228 218 221 239 223 223 221 229 214 213 223 202 212 208 206 193 185 200 197 193 189 181 190 190 192 183 194 191 186 181 188 179 173 182 179 174 177 173 170 171 171 167 169 167 165 155 149 146 140 138 137 131 134 130 125 116 122 120 126 132 130 121 109 92 76 83
190 201 302 278 275 251 250 240 259 196 278 192 201 244 268 292 143 253 264 244 211 274 279 270 247 247 249 240 237 232 228 238 226 188 222 209 219 215 220 210 219 218 204 215 208 189 187 198 196 193 192 189 186 194 192 193 193 194 188 184 189 185 173 184 184 181 182 178 170 171 170 170 166 168 165 162 155 153 152 147 149 148 151 145 135 134 131 122 125 119 110 110 114 107 101 76 71
228 40 314 288 318 319 263 231 245 158 247 148 168 211 303 270 227 248 249 270 181 252 273 282 267 252 252 248 244 239 231 237 207 215 227 222 224 213 221 214 214 210 218 214 199 185 199 193 192 194 190 191 192 195 195 196 191 190 187 191 187 180 182 183 187 188 183 177 171 171 171 168 170 167 169 164 154 153 148 152 156 161 154 150 139 138 128 122 114 114 104 103 98 95 94 71 71
16 60 156 319 319 300 286 151 24 155 249 144 139 282 203 251 258 258 263 272 246 253 264 269 274 271 261 250 241 249 247 234 220 224 229 228 228 217 225 221 213 213 211 203 186 204 198 189 191 185 191 194 198 196 194 193 194 192 190 187 184 179 187 187 193 187 181 176 173 172 169 172 167 166 162 159 148 148 152 163 164 163 157 152 141 138 137 141 136 132 141 126 116 103 98 84 83
267 254 110 251 347 266 289 125 130 308 203 175 130 253 228 258 269 276 268 201 233 260 264 265 269 270 267 260 249 249 254 222 229 230 232 233 231 225 228 228 212 213 202 194 202 207 184 193 184 191 192 196 194 197 196 198 192 191 186 186 186 185 185 190 188 182 184 181 173 175 173 172 169 167 167 159 156 154 160 167 172 171 156 151 149 155 143 147 147 148 149 122 99 91 91 86 76
331 359 269 328 198 282 297 282 203 236 324 208 136 257 250 239 254 266 302 182 174 240 257 269 273 273 270 267 260 256 256 248 241 240 235 233 226 228 225 228 210 205 205 206 206 184 198 194 189 195 189 196 197 198 197 195 191 190 188 185 185 184 184 189 188 188 185 176 178 174 177 174 170 170 165 161 157 164 168 174 172 157 161 152 155 153 148 157 159 147 156 136 122 109 104 57 37
343 201 274 263 218 259 348 287 208 219 140 265 177 250 276 286 254 265 292 268 205 234 260 260 267 271 272 268 262 262 273 272 252 243 237 230 227 224 227 228 209 209 207 202 196 192 199 194 193 195 194 197 197 195 193 193 188 189 189 188 187 182 187 190 189 182 180 178 179 180 178 177 173 170 168 165 159 165 168 166 166 165 162 161 160 164 166 165 157 149 138 131 127 142 123 117 48
270 174 229 200 243 279 268 307 287 162 170 219 239 244 244 254 274 290 300 294 274 255 261 265 266 269 267 267 264 261 262 268 267 252 240 224 229 220 226 226 216 215 215 207 200 193 199 192 195 197 197 193 192 191 191 189 187 180 183 183 181 186 193 191 186 178 183 183 181 186 178 179 174 172 169 165 162 164 164 163 160 166 166 163 162 165 172 158 158 150 127 83 121 124 129 124 101
227 233 252 277 258 236 253 326 264 52 169 216 318 250 258 265 276 277 272 279 291 279 268 263 264 264 266 266 262 259 257 257 260 261 243 228 224 225 224 222 213 209 210 208 202 202 193 193 193 197 193 189 188 188 184 174 167 164 151 160 176 190 194 192 179 184 188 184 190 186 179 180 175 173 170 165 162 165 163 164 167 173 168 168 163 164 163 168 161 164 140 115 92 100 130 147 151
231 223 246 232 258 236 212 238 261 278 279 288 248 259 266 267 262 265 272 261 243 275 277 272 264 258 260 261 259 256 256 258 258 262 260 226 221 222 217 211 212 208 207 199 200 197 197 190 191 194 195 184 183 176 168 173 168 175 174 159 184 202 193 188 189 193 187 195 194 184 182 180 175 174 170 166 165 167 168 173 172 172 176 170 170 172 178 179 174 153 151 136 126 93 57 118 99
310 49 235 254 256 272 261 266 270 108 325 233 261 269 267 264 263 264 264 277 258 255 273 274 270 265 256 255 257 258 257 252 257 264 272 248 232 224 214 198 207 204 204 194 195 199 195 192 184 198 192 181 179 176 180 177 180 179 180 194 201 193 192 190 191 195 195 199 189 186 181 182 176 172 171 166 172 170 173 166 168 179 179 180 184 191 182 174 171 160 144 130 135 120 87 18 104
262 272 267 266 236 270 253 284 280 40 193 274 232 275 273 270 269 266 266 265 266 254 254 267 273 271 263 256 259 257 256 266 273 277 268 260 240 218 205 202 191 196 211 195 200 200 197 191 193 198 176 186 187 187 185 186 190 186 185 194 194 189 185 187 197 196 199 193 188 185 183 181 178 176 173 174 171 174 171 174 179 182 181 188 189 171 168 170 161 159 152 100 37 132 140 209 227
254 243 269 298 261 266 279 263 279 278 233 279 279 270 267 269 261 254 248 247 250 251 246 253 270 277 273 260 253 260 266 272 278 263 266 255 233 226 209 210 209 208 203 199 205 195 193 193 202 189 188 186 192 189 184 194 192 195 195 195 189 188 202 205 203 196 184 184 185 183 184 183 176 179 177 175 175 179 178 178 185 180 184 177 171 176 177 179 180 173 177 152 123 55 117 188 146
234 248 269 250 265 330 295 223 12 318 215 298 294 291 285 263 250 245 242 245 246 259 265 255 243 255 267 265 251 260 278 274 274 275 276 267 218 230 221 229 226 219 217 210 203 198 196 201 200 191 191 191 189 192 193 192 185 179 170 104 160 149 176 169 167 159 180 170 186 187 190 182 182 182 175 180 181 180 181 184 179 180 185 185 182 175 181 185 180 184 181 173 144 129 152 194 115
208 214 235 271 255 240 242 276 329 307 278 260 299 291 285 212 243 239 262 250 262 267 267 263 257 247 250 259 274 256 266 272 279 287 285 282 276 276 242 246 235 223 220 215 202 199 200 204 198 193 191 192 191 189 186 169 154 140 127 88 100 89 77 145 157 193 188 189 188 195 195 181 183 183 183 183 181 183 184 183 181 184 182 186 184 184 185 190 186 183 177 168 180 152 173 164 202
256 209 199 237 252 276 269 286 349 353 310 342 46 328 299 198 177 216 274 28 243 250 246 258 256 251 248 256 270 278 250 255 268 276 281 306 359 320 300 270 239 234 230 224 209 209 204 203 195 193 191 189 189 185 178 170 175 171 163 162 168 180 186 181 197 199 181 191 202 187 180 189 186 186 182 183 187 182 185 185 184 180 185 185 190 193 188 170 183 184 192 183 179 192 144 149 133
278 266 202 233 246 254 271 276 351 284 245 287 48 128 290 252 208 238 253 232 248 266 232 244 249 250 268 249 253 264 273 272 262 267 307 350 327 319 272 242 234 234 236 220 214 212 209 203 194 192 192 190 185 181 176 175 178 182 185 188 187 187 193 206 202 189 190 196 184 184 192 186 188 184 185 185 187 185 183 184 184 186 186 188 187 182 186 193 190 192 178 188 185 152 138 141 160
263 230 183 207 225 227 241 240 207 254 272 278 171 122 249 299 306 207 211 203 245 262 264 258 253 289 350 291 262 266 278 273 274 306 339 296 281 268 267 250 236 234 235 213 220 214 206 202 191 192 191 188 185 178 181 183 183 186 188 194 195 200 204 203 188 194 189 182 185 188 182 187 187 188 185 187 187 185 182 184 184 183 186 189 184 193 195 191 180 187 190 188 166 180 168 155 163
222 259 149 186 208 218 154 180 210 237 25 295 157 123 297 256 259 17 146 191 257 252 254 260 271 309 290 289 274 264 261 310 13 329 315 292 279 272 257 260 252 250 237 216 217 214 213 206 197 190 194 189 185 181 183 189 190 188 191 192 200 211 208 198 175 176 182 180 187 180 181 183 186 191 189 187 187 184 185 185 182 185 187 188 190 195 194 182 186 180 179 179 186 191 187 155 149
256 114 84 80 76 65 129 126 131 320 26 270 172 170 220 278 283 91 6 168 261 247 253 260 272 275 274 270 279 275 310 40 35 23 267 275 263 267 268 284 303 273 250 239 240 208 198 198 202 195 200 191 185 186 188 190 192 187 193 201 205 205 192 165 155 175 180 172 185 182 180 178 186 188 193 188 185 190 189 184 185 189 190 188 190 192 185 185 187 192 190 187 181 177 176 169 171
121 110 81 7 44 38 29 73 101 55 253 260 162 200 166 272 293 171 125 206 206 270 301 292 279 281 280 262 269 328 354 339 344 292 267 264 288 292 304 302 304 313 291 257 221 186 178 182 194 206 209 195 190 191 188 193 192 193 201 201 203 198 186 168 167 179 171 173 188 184 182 186 182 191 184 190 195 191 192 188 189 192 189 188 189 187 191 187 189 188 186 180 184 176 175 173 151
150 202 145 21 298 16 42 340 49 197 267 251 177 182 186 228 277 279 248 284 239 214 259 273 288 279 277 310 344 315 312 293 289 305 306 313 329 326 339 323 326 319 321 266 218 184 178 185 182 198 207 210 203 197 196 198 196 202 205 201 201 198 184 184 188 186 183 184 184 183 184 177 187 184 187 194 197 193 191 192 193 191 191 189 195 191 187 187 181 177 177 184 184 182 164 164 159
122 109 89 201 273 31 316 41 306 196 227 278 210 155 327 245 252 283 295 280 282 228 219 247 264 290 307 315 315 307 285 300 295 306 320 331 333 325 322 320 318 298 259 246 225 199 191 185 188 193 203 195 202 203 204 203 203 207 205 203 203 195 193 193 196 190 184 185 185 182 177 187 178 183 197 197 198 189 187 189 192 193 196 197 191 184 188 180 178 180 181 184 181 181 183 176 173
139 161 166 132 258 244 251 264 249 295 296 254 175 204 244 284 301 220 239 251 253 255 227 237 256 272 304 307 305 314 316 307 313 329 323 309 313 319 320 303 293 276 258 240 231 207 198 195 195 202 206 188 192 200 211 211 213 212 207 205 202 196 201 197 197 195 190 192 186 186 185 185 186 196 192 199 193 184 190 196 190 195 196 191 190 188 183 183 180 183 182 182 187 188 175 183 182
199 123 159 189 178 163 240 196 241 238 232 360 268 128 232 108 237 236 234 277 310 266 257 280 268 248 250 272 289 283 291 307 354 333 292 307 300 290 287 299 293 263 241 233 226 220 196 202 200 207 207 199 194 198 200 215 219 216 213 210 205 201 202 199 201 199 190 190 191 189 192 190 193 197 196 195 177 188 194 190 192 191 191 192 189 189 187 183 184 182 185 188 182 178 182 176 179
206 161 57 56 237 132 236 219 241 279 314 344 209 209 205 212 252 284 244 266 297 279 336 8 321 289 313 319 296 297 318 326 309 328 336 315 285 278 281 288 274 262 244 228 224 214 207 210 205 211 210 202 201 201 207 208 214 216 219 215 213 207 205 204 205 204 203 195 192 190 191 193 198 189 188 180 189 183 189 191 190 195 189 188 191 190 186 186 184 183 184 183 185 178 177 181 180
236 94 201 219 134 154 305 317 291 85 1 254 192 295 274 298 280 263 313 315 273 302 283 290 275 276 315 276 269 275 338 307 324 321 309 306 299 279 247 238 261 259 255 232 224 209 210 205 203 214 218 215 212 211 209 203 207 212 220 222 219 214 209 206 205 205 205 199 193 196 194 197 188 187 190 186 181 186 185 187 189 190 189 187 186 190 189 187 185 188 187 185 186 179 178 184 174
108 191 242 159 157 116 188 237 340 246 241 262 260 270 283 318 284 354 342 2 311 356 306 275 276 266 292 251 269 343 306 293 291 293 282 264 259 265 254 219 208 225 251 263 247 222 217 210 206 211 214 219 222 215 211 207 206 209 214 217 221 222 221 221 213 201 190 191 202 202 201 191 199 194 179 181 179 180 185 186 188 188 187 184 188 186 187 188 185 193 192 192 188 173 178 176 179
196 192 295 141 242 262 263 86 245 242 249 265 209 266 274 266 269 286 286 284 285 288 276 336 269 254 245 278 310 291 274 289 316 308 297 241 226 271 332 6 5 340 307 284 295 284 267 245 232 219 223 224 224 219 221 226 222 222 215 219 220 225 229 232 230 218 192 195 198 201 203 206 183 183 186 178 179 181 182 185 186 187 185 187 184 186 183 186 187 190 189 189 180 176 180 180 179
166 26 322 125 106 241 238 195 220 257 262 256 246 223 253 247 258 259 252 251 272 278 296 273 263 248 258 288 300 310 327 328 309 312 318 336 348 359 15 11 359 3 350 337 331 333 296 281 269 256 259 250 226 218 210 220 220 224 229 219 221 221 224 228 229 223 215 206 203 200 200 195 200 183 186 181 186 185 183 183 187 185 184 183 184 185 182 184 184 193 188 188 184 180 184 183 178
271 187 250 284 208 248 43 342 210 233 261 242 272 247 233 235 255 261 257 231 270 296 295 287 264 256 269 268 289 314 315 317 323 343 357 4 5 2 2 16 15 13 19 3 350 335 319 319 294 281 264 253 235 224 214 225 212 223 221 225 223 214 222 217 217 222 228 227 208 201 202 202 168 194 185 188 190 188 187 186 183 186 185 184 184 183 184 183 186 190 190 189 180 185 188 188 174
219 191 221 215 233 261 249 256 166 223 231 251 247 253 233 269 287 290 276 202 232 259 268 294 304 299 286 294 296 296 307 335 6 14 13 12 6 1 1 360 13 25 24 15 0 350 342 327 310 295 288 272 260 248 233 236 229 231 227 230 229 230 226 213 217 216 222 222 223 214 205 187 200 199 185 192 190 188 188 186 186 187 186 185 185 186 183 184 187 188 189 186 184 185 189 186 180